GALAXY 18 (G-18) (32951 NORAD) Tracking and Keplerian Element Data

This shows tracking and keplerian element data for the satellite.

Feedback or suggestion? Click here.




ElementValue
Catalog32951
NameGALAXY 18 (G-18)
Epoch Orbit4085
Epoch Day34.73066309
Epoch Year2025
RAAN273.8393
Inclination0.0065
Eccentricity0.0003153
Argument of Perigee48.944
Mean Anonmoly311.3662
Mean Motion1.00271628
Decay Rate3E-07
L11 32951U 08024A 25034.73066309 .00000030 00000+0 00000+0 0 9993
L22 32951 0.0065 273.8393 0003153 48.9440 311.3662 1.00271628 40855



Live tracking and technical data element details for GALAXY 18 (G-18) (NORAD 32951). GALAXY 18 (G-18) can be tracked NOW for your location showing map with azimuth and elevation plus other details from your city location.







IsCatalogInMostPopularTable: catalog: 32951, numindb: 449
Update: records affected: 1



GetName: 32951 GALAXY 18 (G-18)

Hit Count: updated at: Sat, 17 May 2025 09:56:55 GMT